Terminal Aerodrome Forecast
Issued by NWS

Home | Current Version | Previous Version | Text Only | Print | Product List | Glossary On
Versions: 1 2 3 4 5 6 7 8 9 10 11 12 13 14 15 16 17 18 19 20 21 22 23 24 25
000
FTUS45 KPSR 142300
TAFIWA
TAF
KIWA 142320Z 1500/1524 15006KT P6SM SKC
     FM151400 12012KT P6SM SCT150
     FM152100 20007KT P6SM SCT150
      AMD LTD TO CLD VIS AND WIND 1503/1513=

USA.gov is the U.S. government's official web portal to all federal, state and local government web resources and services.